• Join FlightAware (Why Join?)
  • Login
  • US Flag 
09:26AM EDT


 

Airport Tracker/Info


-or-


 

Live Flight TrackerFlight Track Log ✈ TMC875 ✈ 06-Jun-2013 ✈ KBED - KPBI

Flight Track Log - Related Links

Times and Time Zones

All times are in EDT time to prevent confusion due to time zone crossing. See the TMC875 flight status page for this flight to view local times or setup timezone preferences in your user account.

Time Position Orientation Groundspeed Altitude Reporting Facility
EDT Latitude Longitude Course Direction KTS MPH feet Rate Location/Type
11:17AM 42.4667 -71.3167 217° Southwest 197 227 1,300  Level KA90
11:19AM 42.3817 -71.4647 232° Southwest 248 285 6,000 2,460 Climbing Boston Center
11:20AM 42.3236 -71.5133 212° Southwest 269 310 9,400 3,840 Climbing Boston Center
11:21AM 42.2553 -71.5733 213° Southwest 269 310 13,700 3,240 Climbing Boston Center
11:22AM 42.1933 -71.6275 213° Southwest 274 315 15,900 1,920 Climbing Boston Center
11:23AM 42.0009 -71.7825 217° Southwest  Level FlightAware Approximate
11:23AM 42.1292 -71.6869 214° Southwest 295 339 17,600  Level Boston Center
11:24AM 42.0544 -71.7606 216° Southwest 321 369 19,400 1,980 Climbing Boston Center
11:25AM 41.9797 -71.8314 215° Southwest 328 377 21,600 2,100 Climbing Boston Center
11:26AM 41.9011 -71.9017 214° Southwest 336 387 23,600 2,100 Climbing Boston Center
11:27AM 41.8242 -71.9747 215° Southwest 341 392 25,800 2,040 Climbing Boston Center
11:28AM 41.7475 -72.0478 215° Southwest 341 392 27,700 2,100 Climbing Boston Center
11:29AM 41.6706 -72.1206 215° Southwest 341 392 30,000 1,800 Climbing Boston Center
11:30AM 41.5936 -72.1903 214° Southwest 341 392 31,400 1,260 Climbing Boston Center
11:31AM 41.5167 -72.2625 215° Southwest 341 392 32,600 1,020 Climbing Boston Center
11:32AM 41.4272 -72.3406 213° Southwest 346 398 33,500 960 Climbing Boston Center
11:33AM 41.3458 -72.4181 216° Southwest 359 413 34,600 1,080 Climbing Boston Center
11:34AM 41.2667 -72.4897 214° Southwest 374 430 35,700 1,020 Climbing Boston Center
11:35AM 41.1853 -72.5669 216° Southwest 379 436 36,700 1,020 Climbing Boston Center
11:36AM 41.1019 -72.6439 215° Southwest 379 436 37,800 960 Climbing Boston Center
11:37AM 41.0247 -72.7208 217° Southwest 369 425 38,700 780 Climbing Boston Center
11:38AM 40.9453 -72.8000 217° Southwest 364 419 39,400 600 Climbing Boston Center
11:39AM 40.8658 -72.8764 216° Southwest 364 419 40,000 300 Climbing Boston Center
11:40AM 40.7861 -72.9553 217° Southwest 364 419 40,000  Level Boston Center
11:41AM 40.6919 -73.0422 215° Southwest 364 419 40,000  Level Boston Center
11:42AM 40.6019 -73.1233 214° Southwest 381 438 40,000  Level Boston Center
11:43AM 40.5119 -73.2017 214° Southwest 386 444 40,000  Level Boston Center
11:44AM 40.4319 -73.2881 219° Southwest 386 444 40,000  Level Boston Center
11:47AM 40.2531 -73.4686 218° Southwest 387 445 40,000  Level Washington Center
11:48AM 40.1669 -73.5500 216° Southwest 387 445 40,000  Level Washington Center
11:49AM 40.0889 -73.6147 212° Southwest 382 440 40,000  Level Washington Center
11:50AM 40.0025 -73.6956 216° Southwest 382 440 40,000  Level Washington Center
11:51AM 39.9164 -73.7764 216° Southwest 382 440 40,000  Level Washington Center
11:52AM 39.8322 -73.8569 216° Southwest 382 440 40,000  Level Washington Center
11:53AM 39.7458 -73.9372 216° Southwest 382 440 40,000  Level Washington Center
11:54AM 39.6594 -74.0175 216° Southwest 382 440 40,000  Level Washington Center
11:55AM 39.5750 -74.0972 216° Southwest 382 440 40,000  Level Washington Center
11:56AM 39.4883 -74.1772 215° Southwest 382 440 40,000  Level Washington Center
11:57AM 39.4017 -74.2542 214° Southwest 382 440 40,000  Level Washington Center
11:58AM 39.3131 -74.3361 216° Southwest 382 440 40,000  Level Washington Center
11:59AM 39.2283 -74.4153 216° Southwest 382 440 40,000  Level Washington Center
12:00PM 39.1394 -74.4944 215° Southwest 382 440 40,000  Level Washington Center
12:01PM 39.0547 -74.5758 217° Southwest 382 440 40,000  Level Washington Center
12:02PM 38.9658 -74.6519 214° Southwest 382 440 40,000  Level Washington Center
12:03PM 38.8808 -74.7275 215° Southwest 382 440 40,000  Level Washington Center
12:04PM 38.7939 -74.8086 216° Southwest 382 440 40,000  Level Washington Center
12:05PM 38.7089 -74.8867 216° Southwest 382 440 40,000  Level Washington Center
12:06PM 38.6217 -74.9619 214° Southwest 382 440 40,000  Level Washington Center
12:07PM 38.5367 -75.0450 217° Southwest 382 440 40,000  Level Washington Center
12:08PM 38.4517 -75.1172 214° Southwest 382 440 40,000  Level Washington Center
12:09PM 38.3642 -75.1944 215° Southwest 382 440 40,000  Level Washington Center
12:10PM 38.2728 -75.2797 216° Southwest 375 432 40,000  Level Washington Center
12:11PM 38.1853 -75.3539 214° Southwest 380 437 40,000  Level Washington Center
12:12PM 38.1022 -75.4333 217° Southwest 380 437 40,000  Level Washington Center
12:13PM 38.0147 -75.5047 213° Southwest 380 437 40,000  Level Washington Center
12:14PM 37.9228 -75.5706 209° Southwest 380 437 40,000  Level Washington Center
12:15PM 37.8333 -75.6392 211° Southwest 380 437 40,000  Level Washington Center
12:16PM 37.7414 -75.7047 209° Southwest 380 437 40,000  Level Washington Center
12:17PM 37.6475 -75.7650 207° Southwest 380 437 40,000  Level Washington Center
12:18PM 37.5536 -75.8222 206° Southwest 380 437 40,000  Level Washington Center
12:19PM 37.4575 -75.8744 203° Southwest 380 437 40,000  Level Washington Center
12:20PM 37.3633 -75.9289 205° Southwest 380 437 40,000  Level Washington Center
12:21PM 37.2672 -75.9833 204° Southwest 380 437 40,000  Level Washington Center
12:22PM 37.1733 -76.0375 205° Southwest 380 437 40,000  Level Washington Center
12:23PM 37.0772 -76.0917 204° Southwest 378 435 40,000  Level Washington Center
12:24PM 36.9831 -76.1483 206° Southwest 378 435 40,000  Level Washington Center
12:25PM 36.8931 -76.1892 200° South 378 435 40,000  Level Washington Center
12:26PM 36.7989 -76.2431 205° Southwest 378 435 40,000 -60 Level Washington Center
12:27PM 36.6944 -76.3017 204° Southwest 378 435 39,900  Descending Washington Center
12:28PM 36.6022 -76.3553 205° Southwest 378 435 40,000  Climbing Washington Center
12:29PM 36.5164 -76.4008 203° Southwest 378 435 40,000  Level Washington Center
12:30PM 36.4219 -76.4542 204° Southwest 378 435 40,000  Level Washington Center
12:31PM 36.3258 -76.5047 203° Southwest 378 435 40,000  Level Washington Center
12:32PM 36.2314 -76.5575 204° Southwest 378 435 40,000  Level Washington Center
12:33PM 36.1372 -76.6106 204° Southwest 378 435 40,000  Level Washington Center
12:34PM 36.0406 -76.6606 203° Southwest 378 435 40,000  Level Washington Center
12:35PM 35.9464 -76.7133 204° Southwest 378 435 40,000  Level Washington Center
12:36PM 35.8519 -76.7631 203° Southwest 378 435 40,000  Level Washington Center
12:37PM 35.7556 -76.8181 205° Southwest 378 435 40,000  Level Washington Center
12:38PM 35.6589 -76.8678 203° Southwest 378 435 40,000  Level Washington Center
12:39PM 35.5581 -76.9275 206° Southwest 378 435 40,000  Level Washington Center
12:40PM 35.4594 -76.9792 203° Southwest 378 435 40,000  Level Washington Center
12:41PM 35.3608 -77.0311 203° Southwest 383 441 40,000  Level Washington Center
12:42PM 35.2642 -77.0828 204° Southwest 383 441 40,000  Level Washington Center
12:43PM 35.1675 -77.1344 204° Southwest 383 441 40,000  Level Washington Center
12:44PM 35.0708 -77.1858 204° Southwest 383 441 40,000  Level Washington Center
12:45PM 34.9764 -77.2372 204° Southwest 378 435 40,000  Level Washington Center
12:46PM 34.8775 -77.2883 203° Southwest 378 435 40,000  Level Washington Center
12:47PM 34.7869 -77.3394 205° Southwest 378 435 40,000  Level Washington Center
12:48PM 34.6903 -77.3881 202° Southwest 378 435 40,000  Level Washington Center
12:49PM 34.5914 -77.4439 205° Southwest 384 442 40,000  Level Washington Center
12:50PM 34.4908 -77.4794 196° South 384 442 40,000  Level Washington Center
12:51PM 34.3858 -77.5122 194° South 389 448 40,000  Level Washington Center
12:52PM 34.2831 -77.5450 195° South 389 448 40,000  Level Washington Center
12:54PM 34.0289 -77.6258 195° South 393 452 40,000  Level Jacksonville Center
12:55PM 33.9239 -77.6594 195° South 393 452 40,000  Level Jacksonville Center
12:56PM 33.8231 -77.6931 195° South 393 452 40,000  Level Jacksonville Center
12:57PM 33.7181 -77.7242 194° South 393 452 40,000  Level Jacksonville Center
12:58PM 33.6028 -77.7608 195° South 393 452 40,000  Level Jacksonville Center
12:59PM 33.4975 -77.7944 195° South 393 452 40,000  Level Jacksonville Center
01:00PM 33.3947 -77.8303 196° South 393 452 40,000  Level Jacksonville Center
01:01PM 33.2917 -77.8608 194° South 393 452 40,000  Level Jacksonville Center
01:02PM 33.1886 -77.8939 195° South 393 452 40,000  Level Jacksonville Center
01:03PM 33.0856 -77.9244 194° South 393 452 40,000  Level Jacksonville Center
01:04PM 32.9803 -77.9575 195° South 393 452 40,000  Level Jacksonville Center
01:05PM 32.8772 -77.9906 195° South 393 452 40,000  Level Jacksonville Center
01:06PM 32.7742 -78.0208 194° South 393 452 40,000  Level Jacksonville Center
01:07PM 32.6711 -78.0533 195° South 393 452 40,000  Level Jacksonville Center
01:08PM 32.5636 -78.0839 193° South 393 452 40,000  Level Jacksonville Center
01:09PM 32.4625 -78.1164 195° South 393 452 40,000  Level Jacksonville Center
01:10PM 32.3553 -78.1464 193° South 393 452 40,000  Level Jacksonville Center
01:11PM 32.2522 -78.1814 196° South 393 452 40,000  Level Jacksonville Center
01:12PM 32.1447 -78.2114 193° South 393 452 40,000  Level Jacksonville Center
01:13PM 32.0394 -78.2436 195° South 393 452 40,000  Level Jacksonville Center
01:14PM 31.9489 -78.2800 199° South 393 452 40,000  Level Jacksonville Center
01:15PM 31.8397 -78.3197 197° South 398 458 40,000  Level Jacksonville Center
01:16PM 31.7325 -78.3544 195° South 398 458 40,000  Level Jacksonville Center
01:17PM 31.6311 -78.3836 194° South 392 451 40,000  Level Jacksonville Center
01:18PM 31.5239 -78.4181 195° South 397 457 40,000  Level Jacksonville Center
01:19PM 31.4228 -78.4497 195° South 397 457 40,000 -60 Level Jacksonville Center
01:20PM 31.3133 -78.4842 195° South 392 451 39,900  Descending Jacksonville Center
01:21PM 31.2078 -78.5133 193° South 392 451 40,000  Climbing Jacksonville Center
01:22PM 31.1006 -78.5500 196° South 397 457 40,000 -60 Level Jacksonville Center
01:23PM 30.9808 -78.5869 195° South 396 456 39,900  Descending Jacksonville Center
01:24PM 30.8714 -78.6211 195° South 399 459 40,000  Climbing Jacksonville Center
01:25PM 30.7658 -78.6547 195° South 394 453 39,900  Descending Jacksonville Center
01:26PM 30.6586 -78.6886 195° South 401 461 40,000 60 Climbing Jacksonville Center
01:26PM 30.6228 -78.7014 197° South 403 464 40,000  Level Miami Center
01:27PM 30.5139 -78.7406 197° South 389 448 40,000  Level Miami Center
01:28PM 30.4028 -78.7794 197° South 404 465 40,000  Level Miami Center
01:29PM 30.2961 -78.8158 196° South 410 472 40,000  Level Miami Center
01:30PM 30.1850 -78.8572 198° South 410 472 40,000 -300 Level Miami Center
01:31PM 30.0739 -78.8958 197° South 405 466 39,500 -1,020 Descending Miami Center
01:32PM 29.9711 -78.9392 200° South 405 466 38,000 -1,680 Descending Miami Center
01:33PM 29.8622 -78.9756 196° South 405 466 36,200 -1,020 Descending Miami Center
01:34PM 29.7533 -79.0092 195° South 411 473 36,000 -120 Descending Miami Center
01:35PM 29.6342 -79.0308 189° South 418 481 36,000  Level Miami Center
01:36PM 29.5108 -79.0450 186° South 430 495 36,000  Level Miami Center
01:37PM 29.4019 -79.0689 191° South 424 488 36,000  Level Miami Center
01:38PM 29.3017 -79.0908 191° South 398 458 36,000  Level Miami Center
01:39PM 29.1908 -79.1050 186° South 393 452 36,000  Level Miami Center
01:40PM 29.0842 -79.1267 190° South 393 452 36,000  Level Miami Center
01:41PM 28.9731 -79.1481 190° South 393 452 36,000  Level Miami Center
01:42PM 28.8586 -79.1339 174° South 401 461 36,000  Level Miami Center
01:43PM 28.7447 -79.0867 160° South 407 468 36,000 -600 Level Miami Center
01:44PM 28.6367 -79.0419 160° South 412 474 34,900 -1,200 Descending Miami Center
01:45PM 28.5311 -78.9950 159° South 412 474 33,600 -1,260 Descending Miami Center
01:46PM 28.4286 -79.0119 188° South 382 440 32,400 -1,260 Descending Miami Center
01:47PM 28.3419 -79.0786 214° Southwest 362 417 31,100 -1,680 Descending Miami Center
01:48PM 28.2489 -79.1500 214° Southwest 388 447 29,100 -2,100 Descending Miami Center
01:49PM 28.1558 -79.2208 214° Southwest 398 458 27,000 -2,100 Descending Miami Center
01:50PM 28.0692 -79.2875 214° Southwest 398 458 24,900 -1,500 Descending Miami Center
01:51PM 27.9664 -79.3275 199° South 398 458 24,000 -480 Descending Miami Center
01:52PM 27.8656 -79.3606 196° South 385 443 24,000  Level Miami Center
01:53PM 27.7894 -79.4153 212° Southwest 365 420 24,000 -120 Level Miami Center
01:54PM 27.7006 -79.4767 211° Southwest 377 434 23,800 -1,380 Descending Miami Center
01:55PM 27.6117 -79.5425 213° Southwest 364 419 21,300 -2,400 Descending Miami Center
01:56PM 27.5356 -79.5947 211° Southwest 335 386 19,100 -2,160 Descending Miami Center
01:57PM 27.4614 -79.6492 213° Southwest 325 374 17,000 -2,100 Descending Miami Center
01:58PM 27.3917 -79.6964 211° Southwest 325 374 14,900 -2,040 Descending Miami Center
01:59PM 27.3217 -79.7486 214° Southwest 318 366 13,000 -1,920 Descending Miami Center
02:00PM 27.2539 -79.7958 212° Southwest 286 329 11,100 -1,800 Descending Miami Center
02:01PM 27.1967 -79.8342 211° Southwest 263 303 9,500 -1,500 Descending Miami Center
02:02PM 27.1394 -79.8747 212° Southwest 251 289 8,100 -1,500 Descending Miami Center
02:03PM 27.0844 -79.9058 207° Southwest 245 282 6,600 -1,560 Descending Miami Center
02:04PM 27.0275 -79.9394 208° Southwest 245 282 5,000 -1,320 Descending Miami Center
02:05PM 26.9683 -79.9728 207° Southwest 240 276 4,000 -540 Descending Miami Center
02:06PM 26.9153 -80.0133 214° Southwest 234 269 4,000  Level Miami Center
02:08PM 26.8247 -80.0753 222° Southwest  Level FlightAware Approximate
02:15PM 26.6832 -80.0956 110° East  Level Estimated
02:16PM 26.6832 -80.0956 110° East  Level Estimated
02:17PM 26.6832 -80.0956 110° East  Level Estimated
02:18PM 26.6832 -80.0956 110° East  Level Estimated
02:19PM 26.6832 -80.0956 110° East  Level Estimated
02:20PM 26.6832 -80.0956 110° East  Level Estimated
02:21PM 26.6832 -80.0956 110° East  Level Estimated